一网星座-0240星 (ONEWEB-0240 )

导读

ONEWEB-0240是英国OneWeb星座下的低轨互联网通信卫星,于2021年5月28日成功发射入轨。它运行在近地轨道,属于OneWeb一期全球通信星座的组成部分。OneWeb星座旨在为全球提供宽带互联网接入服务,主要服务电信运营商客户。遵循空间碎片规范,寿命末期会主动离轨,保障轨道环境安全,助力全球偏远地区网络覆盖。

基本信息
目录编号:
48785
目录名称:
ONEWEB-0240
国际标识:
2021-045U
轨道中心:
EARTH
卫星名称:
一网星座-0240星
卫星全名:
一网星座-0240星 (ONEWEB-0240 )
卫星状态:
在轨 (已飞行1932 天)
发射日期:
2021-05-28 UTC
国别 :
英国 (GB)
星等 :
--
该卫星已列入 空间交会检测服务 Space Conjunction Data Service (SCDS) ,当前飞行风险评估等级: 无高风险
轨道信息
数据来源 国际轨道数据 AOE轨道数据
星历时间 2026-09-11T12:53:29+0800
8小时前
查看轨道信息
2026-09-10T07:00:00+0800
1天前
查看轨道信息
半长轴 7579.903km 7579.904km
偏心率 0.000194 0.0002048
轨道倾角 87.898° 87.898°
近地点辐角 76.338° 73.068°
升交点赤经 242.040° 242.288°
平近点角 283.797° 151.915°
近地点 1200.295km 1200.214km
远地点 1203.237km 1203.32km
周期 109.460分钟 109.460分钟
每日圈数 13.155498 13.155496
详细信息
平衡模式:
三轴稳定
覆盖范围:
全球
运营商:
一网卫星公司
运营商所在国:
英国
制造商(研发单位):
一网卫星公司
制造商所在国:
英国
使用方式:
暂无
卫星简介
OneWeb卫星网络由648颗重约125公斤的微型卫星组成,运行在1200公里的轨道上。 每颗卫星都能够提供至少每秒8千兆位的吞吐量,以使用其高吞吐量的Ku频段有效载荷为家庭和移动平台提供互联网接入。该卫星仍在工作。
2D轨道图
3D轨道图
轨道高度分析图
轨道倾角分析图
轨道综合分析图
查看轨道综合分析图
与全量物体交会距离演化趋势
与全量物体交会风险概率演化趋势